Group_ship,Cruise,JD_GMT,Date_DDMMYYYY,TIME_HH:MM:SS,Lat_dec_degree,Long_dec_degree,xCO2eq_ppm,xCO2a_ppm,Pres_Equi_hPa,Pres_sealevel_hPa,EqTemp_C,SST(TSG)_C,Sal(TSG)_Permil,Water_flow_l/min,Gasflow_IR_ml/min,Temp_IR_C,Pres_IR_hPa,Ship_heading_true_degree,Ship_speed_knot,Wind_dir_rel_degree,Wind_speed_rel_m/s,fCO2W@SST_uatm,Qcflag_water,fCO2a_uatm,Qcflag_air,dfCO2_uatm,Fluoro_ug/l,Wind_speed_true_m/s,Wind_dir_true_degree,Air_temp_C,Oxygen
AOML_Explorer,Ex0543E,304.616,31102005,14:47:10,24.593,-74.688,379.72,-9,1016.57,1012.32,27.6,28.11,36.495,1.945,84.018,31.403,1016.57,125.4,20.7,46.636,27.279,373.05,2,-9,9,-9,0.12,23.14,46.64,26.64,260.6
AOML_Explorer,Ex0543E,304.618,31102005,14:49:43,24.585,-74.675,379.72,-9,1016.63,1011.72,27.58,28.14,36.502,1.892,83.104,31.413,1016.63,126.3,20.9,42.982,26.764,373.73,2,-9,9,-9,0.1,23.29,42.98,26.81,265.25
AOML_Explorer,Ex0543E,304.62,31102005,14:52:16,24.576,-74.662,379.74,-9,1016.44,1011.72,27.6,28.17,36.48,1.947,83.49,31.42,1016.44,125,20.7,41.513,25.22,373.74,2,-9,9,-9,0.11,21.68,41.51,26.14,275.61
AOML_Explorer,Ex0543E,304.621,31102005,14:54:49,24.568,-74.649,379.41,-9,1016.48,1012.17,27.58,28.15,36.489,2.048,83.755,31.432,1016.48,124.4,21,38.645,26.25,373.46,2,-9,9,-9,0.11,23.13,38.65,26.61,275.41
AOML_Explorer,Ex0543E,304.623,31102005,14:57:22,24.559,-74.635,379.1,-9,1016.42,1012.38,27.74,28.13,36.478,2.087,84.022,31.437,1016.42,125.7,20.8,45.804,25.735,370.6,2,-9,9,-9,0.1,21.6,45.8,26.83,244.89
AOML_Explorer,Ex0543E,304.625,31102005,14:59:55,24.55,-74.622,379.06,-9,1016.42,1012.26,27.7,28.15,36.491,2.021,83.506,31.449,1016.42,126.1,21,39.711,24.706,371.43,2,-9,9,-9,0.1,21.55,39.71,26.94,258.84
AOML_Explorer,Ex0543E,304.647,31102005,15:31:52,24.444,-74.456,379.44,-9,1016.49,1012.90,27.54,28.3,36.51,1.774,83.27,31.601,1016.49,124.5,21,54.579,23.162,376.15,2,-9,9,-9,0.11,17.14,54.58,27.16,249.35
AOML_Explorer,Ex0543E,304.649,31102005,15:34:25,24.435,-74.443,378.69,-9,1016.8,1013.02,27.85,28.31,36.503,1.863,83.388,31.606,1016.8,124.8,21,62.518,22.647,371.24,2,-9,9,-9,0.08,15.52,62.52,27.39,251.15
AOML_Explorer,Ex0543E,304.651,31102005,15:36:58,24.427,-74.43,378.71,-9,1016.76,1012.98,27.93,28.31,36.509,1.936,84.086,31.612,1016.76,124.9,21,58.094,22.132,370.18,2,-9,9,-9,0.08,15.47,58.09,27.42,239.69
AOML_Explorer,Ex0543E,304.652,31102005,15:39:31,24.418,-74.416,378.64,-9,1016.83,1013.06,27.96,28.31,36.51,1.938,83.652,31.616,1016.83,125.1,21,52.074,22.132,369.71,2,-9,9,-9,0.07,16.41,52.07,27.37,238.97
AOML_Explorer,Ex0543E,304.654,31102005,15:42:04,24.41,-74.403,378.85,-9,1016.39,1012.32,27.95,28.32,36.498,1.971,83.274,31.623,1016.39,125.6,21,55.484,23.676,369.86,2,-9,9,-9,0.08,17.69,55.48,27.3,243.32
AOML_Explorer,Ex0543E,304.656,31102005,15:44:37,24.401,-74.39,378.81,-9,1016.6,1012.89,27.96,28.31,36.509,1.987,83.127,31.625,1016.6,125.3,21.1,53.014,21.617,369.78,2,-9,9,-9,0.09,15.71,53.01,27.1,236.96
AOML_Explorer,Ex0543E,304.658,31102005,15:47:10,24.392,-74.376,378.91,-9,1016.87,1012.35,27.96,28.31,36.509,1.828,83.233,31.629,1016.87,125.8,21,56.261,23.162,369.88,2,-9,9,-9,0.08,17.04,56.26,27.29,238.31
AOML_Explorer,Ex0543E,304.66,31102005,15:49:43,24.384,-74.363,378.64,-9,1016.51,1012.22,27.91,28.27,36.507,2.012,83.146,31.633,1016.51,125.5,20.9,67.165,23.676,369.65,2,-9,9,-9,0.07,16.14,67.17,27.41,246.37
AOML_Explorer,Ex0543E,304.661,31102005,15:52:16,24.375,-74.35,378.96,-9,1016.4,1012.59,27.93,28.26,36.528,2.039,83.547,31.636,1016.4,124.7,20.9,57.995,23.676,369.46,2,-9,9,-9,0.07,17.25,57.99,27.37,238.51
AOML_Explorer,Ex0543E,304.663,31102005,15:54:49,24.367,-74.337,378.12,-9,1016.58,1012.71,27.91,28.24,36.528,2.021,82.815,31.64,1016.58,126.2,20.9,68.234,24.191,368.84,2,-9,9,-9,0.07,16.7,68.23,27.39,246.6
AOML_Explorer,Ex0543E,304.665,31102005,15:57:22,24.358,-74.323,376.87,-9,1016.55,1011.87,27.92,28.24,36.535,1.959,82.97,31.645,1016.55,129.1,20.9,69.358,25.22,367.37,2,-9,9,-9,0.07,18,69.36,27.42,235.8
AOML_Explorer,Ex0543E,304.667,31102005,15:59:55,24.349,-74.311,376.66,-9,1016.67,1012.56,27.92,28.24,36.539,2.016,84.058,31.648,1016.67,127.5,20.8,69.162,23.162,367.27,2,-9,9,-9,0.07,15.67,69.16,27.38,233.01
AOML_Explorer,Ex0543E,304.68,31102005,16:19:07,24.282,-74.214,374.31,-9,1016.32,1012.84,27.85,28.2,36.491,1.996,83.481,31.721,1016.32,127.6,20.9,70.047,23.676,365.29,2,-9,9,-9,0.07,16.07,70.05,27.64,238.13
AOML_Explorer,Ex0543E,304.682,31102005,16:21:40,24.273,-74.2,374.51,-9,1015.98,1012.83,27.84,28.19,36.526,2.062,82.299,31.725,1015.98,127.5,20.9,85.268,23.676,365.36,2,-9,9,-9,0.07,14.6,85.27,27.63,237.68
AOML_Explorer,Ex0543E,304.683,31102005,16:24:13,24.264,-74.188,374.76,-9,1016.86,1012.55,27.88,28.19,36.526,1.979,82.896,31.727,1016.86,126.5,20.8,85.605,23.162,365.47,2,-9,9,-9,0.07,13.93,85.61,27.62,241.92
AOML_Explorer,Ex0543E,304.685,31102005,16:26:46,24.255,-74.175,374.92,-9,1016.41,1012.37,27.88,28.19,36.526,2.037,83.807,31.729,1016.41,126.3,20.9,83.175,23.676,365.43,2,-9,9,-9,0.07,14.65,83.18,27.61,237.53
AOML_Explorer,Ex0543E,304.687,31102005,16:29:19,24.246,-74.162,375.16,-9,1016.13,1012.54,27.86,28.19,36.527,2.04,83.431,31.729,1016.13,126,20.9,88.365,22.132,365.72,2,-9,9,-9,0.07,12.62,88.36,27.61,245.36
AOML_Explorer,Ex0543E,304.689,31102005,16:31:52,24.237,-74.149,375.27,-9,1016.28,1012.81,27.87,28.18,36.53,2.055,82.924,31.729,1016.28,126.2,20.8,80.633,22.132,365.79,2,-9,9,-9,0.07,13.28,80.63,27.64,238.72
AOML_Explorer,Ex0543E,304.691,31102005,16:34:25,24.229,-74.136,375.19,-9,1016.68,1012.84,27.88,28.18,36.527,2.045,82.906,31.728,1016.68,127.1,20.8,83.271,22.647,365.63,2,-9,9,-9,0.07,13.68,83.27,27.62,234.29
AOML_Explorer,Ex0543E,304.692,31102005,16:36:58,24.22,-74.123,375.28,-9,1016.56,1013.22,27.83,28.18,36.524,2.088,83.4,31.727,1016.56,126.9,20.8,77.028,22.647,366.35,2,-9,9,-9,0.07,14.19,77.03,27.66,246.03
AOML_Explorer,Ex0543E,304.694,31102005,16:39:31,24.211,-74.11,375.14,-9,1016.26,1012.62,27.83,28.19,36.533,2.069,82.8,31.726,1016.26,127.3,20.8,75.313,22.132,366.14,2,-9,9,-9,0.07,13.89,75.31,27.67,239.82
AOML_Explorer,Ex0543E,304.696,31102005,16:42:04,24.202,-74.098,375.24,-9,1016.18,1012.39,27.86,28.2,36.536,2.05,83.337,31.727,1016.18,126.9,20.9,79.678,21.103,366.04,2,-9,9,-9,0.07,12.26,79.68,27.66,249.16
AOML_Explorer,Ex0543E,304.698,31102005,16:44:37,24.193,-74.085,375.28,-9,1016.37,1012.34,27.85,28.2,36.542,1.932,82.761,31.728,1016.37,127,20.9,77.643,22.132,366.21,2,-9,9,-9,0.07,13.62,77.64,27.66,238.86
AOML_Explorer,Ex0543E,304.699,31102005,16:47:10,24.184,-74.072,375.33,-9,1016.5,1012.53,27.83,28.19,36.544,2.033,83.702,31.726,1016.5,126.7,20.9,73,22.132,366.52,2,-9,9,-9,0.07,13.98,73,27.62,244.55
AOML_Explorer,Ex0543E,304.701,31102005,16:49:43,24.175,-74.059,375.67,-9,1015.78,1012.36,27.82,28.21,36.546,1.872,82.425,31.725,1015.78,126.9,21,76.416,21.103,366.92,2,-9,9,-9,0.1,12.51,76.42,27.6,245.92
AOML_Explorer,Ex0543E,304.703,31102005,16:52:16,24.166,-74.046,375.03,-9,1016.22,1012.47,27.69,28.23,36.538,1.266,82.644,31.726,1016.22,126.5,21,73.701,20.588,368.68,2,-9,9,-9,0.12,12.17,73.7,27.55,262.84
AOML_Explorer,Ex0543E,304.705,31102005,16:54:49,24.157,-74.033,375.54,-9,1015.92,1012.57,27.56,28.26,36.537,0.986,83.243,31.727,1015.92,127.7,20.9,71.202,21.103,371.31,2,-9,9,-9,0.09,13.07,71.2,27.58,263.1
AOML_Explorer,Ex0543E,304.707,31102005,16:57:22,24.148,-74.02,374.81,-9,1016.52,1012.43,27.53,28.25,36.528,1.946,83.508,31.725,1016.52,127.3,21,76.627,21.103,371.02,2,-9,9,-9,0.07,12.47,76.63,27.62,248.76
AOML_Explorer,Ex0543E,304.708,31102005,16:59:55,24.139,-74.007,374.21,-9,1016.1,1012.22,27.88,28.26,36.518,1.924,82.653,31.725,1016.1,127.4,21.1,69.945,21.617,365.46,2,-9,9,-9,0.07,13.86,69.95,27.57,236.11
AOML_Explorer,Ex0543E,304.727,31102005,17:26:46,24.044,-73.871,375.25,-9,1015.23,1011.78,27.93,28.24,36.485,2.075,83.533,31.774,1015.23,127.6,21.4,73.441,22.647,365.22,2,-9,9,-9,0.07,14.35,73.44,27.57,231.52
AOML_Explorer,Ex0543E,304.729,31102005,17:29:19,24.035,-73.858,375.3,-9,1015.47,1011.82,27.93,28.24,36.492,1.985,82.778,31.772,1015.47,126.1,21.4,71.341,21.617,365.45,2,-9,9,-9,0.07,13.29,71.34,27.6,238.72
AOML_Explorer,Ex0543E,304.73,31102005,17:31:52,24.026,-73.844,375.27,-9,1015.73,1011.74,27.92,28.27,36.532,1.993,83.168,31.771,1015.73,128.8,21.4,73.981,21.103,365.89,2,-9,9,-9,0.07,12.7,73.98,27.54,235.64
AOML_Explorer,Ex0543E,304.732,31102005,17:34:25,24.017,-73.831,375.52,-9,1015.36,1011.56,27.92,28.27,36.551,2.051,82.868,31.767,1015.36,126.4,21.3,74.666,22.647,366.01,2,-9,9,-9,0.07,14.14,74.67,27.53,240.55
AOML_Explorer,Ex0543E,304.734,31102005,17:36:58,24.008,-73.818,375.99,-9,1015.44,1011.22,27.94,28.27,36.552,2.064,83.102,31.764,1015.44,127.2,21.5,75.511,22.132,366.31,2,-9,9,-9,0.07,13.53,75.51,27.56,234.14
AOML_Explorer,Ex0543E,304.736,31102005,17:39:31,23.999,-73.805,376.58,-9,1015.55,1011.55,27.95,28.26,36.547,2.025,83.128,31.762,1015.55,127.1,21.4,70.655,21.617,366.72,2,-9,9,-9,0.07,13.47,70.65,27.63,239.65
AOML_Explorer,Ex0543E,304.738,31102005,17:42:04,23.989,-73.792,376.61,-9,1015.34,1011.78,27.94,28.26,36.535,1.886,83.09,31.761,1015.34,126.7,21.5,67.363,21.103,366.71,2,-9,9,-9,0.07,13.13,67.36,27.59,233.88
AOML_Explorer,Ex0543E,304.739,31102005,17:44:37,23.98,-73.778,376.37,-9,1015.06,1011.37,27.86,28.29,36.514,2.058,82.712,31.761,1015.06,126.8,21.6,66.696,21.103,367.81,2,-9,9,-9,0.07,13.27,66.7,27.65,257.14
AOML_Explorer,Ex0543E,304.741,31102005,17:47:10,23.971,-73.765,376.11,-9,1015.12,1011.64,27.89,28.3,36.545,2.044,82.643,31.757,1015.12,126.5,21.5,73.042,22.647,367.33,2,-9,9,-9,0.07,14.26,73.04,27.58,246.41
AOML_Explorer,Ex0543E,304.743,31102005,17:49:43,23.962,-73.752,375.89,-9,1015.24,1011.17,27.94,28.31,36.55,2.036,83.168,31.751,1015.24,127.7,21.5,68.106,22.132,366.55,2,-9,9,-9,0.07,14.38,68.11,27.67,245.56
AOML_Explorer,Ex0543E,304.745,31102005,17:52:16,23.953,-73.739,376.17,-9,1015.2,1011.63,27.96,28.31,36.559,2.072,83.231,31.748,1015.2,127,21.5,68.475,20.588,366.58,2,-9,9,-9,0.07,12.52,68.48,27.65,237.32
AOML_Explorer,Ex0543E,304.746,31102005,17:54:49,23.943,-73.725,376.41,-9,1015.03,1011.31,27.97,28.32,36.57,2.075,82.709,31.745,1015.03,126.4,21.5,74.446,21.617,366.77,2,-9,9,-9,0.07,12.96,74.45,27.67,233.7
AOML_Explorer,Ex0543E,304.748,31102005,17:57:22,23.934,-73.712,376.64,-9,1015.09,1011.17,27.96,28.32,36.585,2.05,82.58,31.743,1015.09,127.4,21.5,77.447,20.073,367.14,2,-9,9,-9,0.07,11.07,77.45,27.62,239.8
AOML_Explorer,Ex0543E,304.75,31102005,17:59:55,23.925,-73.699,377.04,-9,1014.96,1011.05,27.97,28.32,36.573,2.08,82.625,31.74,1014.96,127.1,21.4,68.927,21.103,367.38,2,-9,9,-9,0.07,13.07,68.93,27.54,241.56
AOML_Explorer,Ex0543E,304.762,31102005,18:16:34,23.865,-73.613,377.18,-9,1015.03,1011.38,28.03,28.38,36.588,2.041,81.119,31.774,1015.03,126.8,20,68.015,20.588,367.47,2,-9,9,-9,0.06,13.29,68.02,27.66,230.78
AOML_Explorer,Ex0543E,304.763,31102005,18:19:07,23.857,-73.601,378.11,-9,1014.92,1011.62,27.94,28.42,36.576,1.985,82.375,31.779,1014.92,126.5,19.8,69.33,21.617,370.08,2,-9,9,-9,0.06,14.36,69.33,27.66,245.75
AOML_Explorer,Ex0543E,304.765,31102005,18:21:40,23.848,-73.588,377.73,-9,1015.03,1011.65,27.81,28.43,36.561,1.339,82.594,31.779,1015.03,127.6,20.7,74.677,20.073,371.76,2,-9,9,-9,0.07,11.76,74.68,27.67,259.66
AOML_Explorer,Ex0543E,304.767,31102005,18:24:13,23.839,-73.576,378.28,-9,1015,1011.30,27.7,28.54,36.569,1.709,82.388,31.778,1015,127.8,21.2,67.042,19.559,375.31,2,-9,9,-9,0.07,11.73,67.04,27.68,261.18
AOML_Explorer,Ex0543E,304.769,31102005,18:26:46,23.83,-73.562,378.31,-9,1014.97,1011.27,27.57,28.36,36.572,2.032,82.559,31.775,1014.97,126.9,21.4,65.311,19.559,374.76,2,-9,9,-9,0.07,11.8,65.31,27.65,258.71
AOML_Explorer,Ex0543E,304.77,31102005,18:29:19,23.821,-73.549,377.04,-9,1014.9,1011.63,27.93,28.37,36.574,2.024,82.896,31.772,1014.9,127.1,21.3,70.574,19.559,368.55,2,-9,9,-9,0.06,11.24,70.57,27.66,238.42
AOML_Explorer,Ex0543E,304.772,31102005,18:31:52,23.812,-73.536,377.98,-9,1014.96,1011.32,28.01,28.37,36.573,2.042,82.596,31.769,1014.96,126.5,21.2,69.786,19.559,368.33,2,-9,9,-9,0.06,11.3,69.79,27.66,234.7
AOML_Explorer,Ex0543E,304.774,31102005,18:34:25,23.803,-73.523,378.71,-9,1014.94,1011.49,28.03,28.36,36.57,2.021,82.051,31.767,1014.94,127,21.2,70.716,19.559,368.76,2,-9,9,-9,0.06,11.26,70.72,27.65,231.78
AOML_Explorer,Ex0543E,304.776,31102005,18:36:58,23.794,-73.51,378.97,-9,1014.92,1011.42,28.02,28.36,36.568,1.964,82.586,31.764,1014.92,126.5,21.2,66.583,19.559,369.13,2,-9,9,-9,0.07,11.67,66.58,27.65,231.45
AOML_Explorer,Ex0543E,304.777,31102005,18:39:31,23.784,-73.497,378.76,-9,1014.67,1011.57,27.98,28.36,36.564,2.032,82.07,31.761,1014.67,127.5,21.3,61.28,18.529,369.24,2,-9,9,-9,0.07,11.17,61.28,27.69,238.67
AOML_Explorer,Ex0543E,304.779,31102005,18:42:04,23.775,-73.484,378.82,-9,1015.01,1011.29,28.01,28.37,36.565,2.038,82.06,31.758,1015.01,128,21.3,68.424,20.073,369.18,2,-9,9,-9,0.06,12.16,68.42,27.71,233.48
AOML_Explorer,Ex0543E,304.781,31102005,18:44:37,23.766,-73.471,378.74,-9,1014.8,1011.06,28.02,28.36,36.552,2,82.432,31.752,1014.8,126.8,21.2,68.355,20.073,368.75,2,-9,9,-9,0.06,12.08,68.36,27.71,231.86
AOML_Explorer,Ex0543E,304.783,31102005,18:47:10,23.757,-73.458,378.87,-9,1014.9,1011.39,28.03,28.36,36.548,2.042,81.77,31.751,1014.9,126.9,21.3,66.44,20.073,368.91,2,-9,9,-9,0.07,12.26,66.44,27.76,230.59
AOML_Explorer,Ex0543E,304.785,31102005,18:49:43,23.748,-73.445,378.87,-9,1014.65,1011.58,28.03,28.35,36.545,2.019,82.638,31.748,1014.65,127.2,21.3,69.071,20.588,368.67,2,-9,9,-9,0.06,12.6,69.07,27.75,230.24
AOML_Explorer,Ex0543E,304.786,31102005,18:52:16,23.739,-73.432,378.82,-9,1014.88,1010.83,28.02,28.35,36.542,2.011,82.069,31.743,1014.88,127.3,21.2,66.075,19.559,368.84,2,-9,9,-9,0.06,11.81,66.07,27.78,229.99
AOML_Explorer,Ex0543E,304.788,31102005,18:54:49,23.73,-73.419,378.62,-9,1014.63,1010.78,28,28.36,36.548,2.083,81.984,31.742,1014.63,127.1,21.4,66.679,19.559,368.81,2,-9,9,-9,0.06,11.59,66.68,27.81,230.65
AOML_Explorer,Ex0543E,304.79,31102005,18:57:22,23.721,-73.406,378.48,-9,1014.69,1011.08,28,28.35,36.568,2.04,81.71,31.744,1014.69,126.9,21.5,65.4,19.044,368.6,2,-9,9,-9,0.07,11.1,65.4,27.75,230.09
AOML_Explorer,Ex0543E,304.792,31102005,18:59:55,23.712,-73.392,378.38,-9,1014.51,1011.01,28.01,28.37,36.568,2.026,81.992,31.747,1014.51,126.8,21.5,68.77,20.073,368.48,2,-9,9,-9,0.07,11.87,68.77,27.93,229.74
AOML_Explorer,Ex0543E,304.807,31102005,19:21:40,23.633,-73.279,378.59,-9,1014.47,1011.15,28.06,28.4,36.561,2.055,82.991,31.826,1014.47,126.8,21.8,74.244,20.588,368.49,2,-9,9,-9,0.07,11.75,74.24,27.98,229.73
AOML_Explorer,Ex0543E,304.808,31102005,19:24:13,23.623,-73.266,379.07,-9,1014.4,1011.04,28.07,28.4,36.552,2.03,83.565,31.831,1014.4,128,21.8,69.49,20.073,368.76,2,-9,9,-9,0.07,11.8,69.49,28.02,229.65
AOML_Explorer,Ex0543E,304.81,31102005,19:26:46,23.614,-73.253,379.25,-9,1014.44,1011.11,28.07,28.4,36.54,2.071,83.698,31.837,1014.44,127,21.8,68.225,19.044,368.95,2,-9,9,-9,0.07,10.66,68.23,28.03,229.57
AOML_Explorer,Ex0543E,304.812,31102005,19:29:19,23.605,-73.239,379.32,-9,1014.34,1011.09,28.07,28.4,36.534,2.026,83.235,31.839,1014.34,127.4,21.9,66.918,19.044,369.03,2,-9,9,-9,0.07,10.77,66.92,28.01,229.47
AOML_Explorer,Ex0543E,304.814,31102005,19:31:52,23.595,-73.226,379.13,-9,1014.41,1011.12,28.05,28.42,36.525,2.054,83.54,31.843,1014.41,126.2,21.8,78.163,20.588,369.42,2,-9,9,-9,0.06,11.3,78.16,28.06,237.36
AOML_Explorer,Ex0543E,304.816,31102005,19:34:25,23.586,-73.212,378.82,-9,1014.55,1010.88,28.05,28.42,36.547,2.027,82.843,31.846,1014.55,126.9,21.9,76.254,20.073,369.18,2,-9,9,-9,0.07,10.91,76.25,28.05,240.57
AOML_Explorer,Ex0543E,304.817,31102005,19:36:58,23.577,-73.199,379.08,-9,1014.26,1010.97,28.09,28.42,36.558,2.064,82.949,31.852,1014.26,126.2,21.9,74.664,20.073,368.64,2,-9,9,-9,0.07,11,74.66,28.04,234.05
AOML_Explorer,Ex0543E,304.819,31102005,19:39:31,23.568,-73.186,379.46,-9,1014.53,1010.65,28.08,28.41,36.421,2.046,83.522,31.856,1014.53,126.6,20.5,74.015,20.073,369.17,2,-9,9,-9,0.07,11.78,74.02,28.05,238.91
AOML_Explorer,Ex0543E,304.821,31102005,19:42:04,23.559,-73.173,379.62,-9,1014.4,1010.63,28.07,28.42,36.549,2.067,83.064,31.862,1014.4,127.2,20.7,73.742,19.559,369.57,2,-9,9,-9,0.07,11.23,73.74,28.01,234
AOML_Explorer,Ex0543E,304.823,31102005,19:44:37,23.55,-73.161,379.48,-9,1014.27,1011.07,28.08,28.42,36.55,2.049,82.424,31.867,1014.27,126.9,21.6,70.314,20.073,369.28,2,-9,9,-9,0.07,11.68,70.31,27.99,231.11
AOML_Explorer,Ex0543E,304.824,31102005,19:47:10,23.541,-73.147,379.26,-9,1014.44,1010.94,28.09,28.41,36.554,2.048,82.118,31.871,1014.44,126.6,21.9,69.082,19.559,368.91,2,-9,9,-9,0.07,11.04,69.08,27.98,230.07
AOML_Explorer,Ex0543E,304.826,31102005,19:49:43,23.531,-73.134,379.27,-9,1014.26,1010.98,28.1,28.43,36.559,2.041,83.602,31.876,1014.26,127.2,21.9,69.434,19.559,368.86,2,-9,9,-9,0.07,11.06,69.43,27.99,229.64
AOML_Explorer,Ex0543E,304.828,31102005,19:52:16,23.522,-73.12,379.48,-9,1014.35,1010.97,28.1,28.43,36.558,2.02,82.772,31.877,1014.35,126.7,21.8,73.06,19.559,369.14,2,-9,9,-9,0.07,10.66,73.06,27.96,229.55
AOML_Explorer,Ex0543E,304.83,31102005,19:54:49,23.513,-73.107,379.55,-9,1014.52,1010.95,28.11,28.43,36.559,2.06,82.826,31.883,1014.52,126.7,21.8,75.171,19.559,369.11,2,-9,9,-9,0.07,10.52,75.17,27.94,229.46
AOML_Explorer,Ex0543E,304.832,31102005,19:57:22,23.503,-73.094,379.79,-9,1014.44,1010.62,28.11,28.46,36.567,2.044,82.793,31.884,1014.44,127.3,21.8,64.038,20.073,369.73,2,-9,9,-9,0.07,12.23,64.04,27.99,229.33
AOML_Explorer,Ex0543E,304.833,31102005,19:59:55,23.494,-73.08,379.94,-9,1014.33,1011.10,28.12,28.48,36.569,2.079,83.19,31.887,1014.33,126.4,21.8,71.484,19.559,369.83,2,-9,9,-9,0.07,10.83,71.48,27.98,229.34
AOML_Explorer,Ex0543E,304.85,31102005,20:24:13,23.405,-72.953,379.81,-9,1014.69,1011.12,28.16,28.48,36.536,2.034,82.617,31.987,1014.69,127,22,66.718,19.559,369.33,2,-9,9,-9,0.08,11.32,66.72,27.92,228.93
AOML_Explorer,Ex0543E,304.852,31102005,20:26:46,23.396,-72.939,380.15,-9,1014.6,1011.07,28.16,28.48,36.535,2.044,82.882,31.989,1014.6,127.1,22,65.323,20.588,369.74,2,-9,9,-9,0.08,12.65,65.32,28,228.86
AOML_Explorer,Ex0543E,304.854,31102005,20:29:19,23.386,-72.926,380.36,-9,1014.87,1011.22,28.16,28.48,36.534,2.084,82.994,31.991,1014.87,126.5,21.9,64.589,19.044,370.07,2,-9,9,-9,0.08,10.95,64.59,27.97,228.84
AOML_Explorer,Ex0543E,304.855,31102005,20:31:52,23.377,-72.913,380.46,-9,1015.18,1011.15,28.16,28.49,36.535,2.036,83.166,31.992,1015.18,126.9,21.8,67.5,18.015,370.34,2,-9,9,-9,0.07,9.5,67.5,27.92,228.99
AOML_Explorer,Ex0543E,304.857,31102005,20:34:25,23.368,-72.899,380.66,-9,1015.04,1011.25,28.17,28.5,36.532,2.066,83.564,31.994,1015.04,126.5,21.9,67.126,19.044,370.45,2,-9,9,-9,0.07,10.68,67.13,27.94,228.86
AOML_Explorer,Ex0543E,304.859,31102005,20:36:58,23.363,-72.893,380.67,-9,1014.98,1011.41,28.18,28.51,36.527,2.061,83.65,31.995,1014.98,127.8,22.1,66.967,19.044,370.46,2,-9,9,-9,0.08,10.69,66.97,27.93,228.77
AOML_Explorer,Ex0543E,304.861,31102005,20:39:31,23.363,-72.893,381.74,-9,1014.84,1011.41,28.18,28.51,36.527,2.005,82.33,31.995,1014.84,127.8,22.1,66.967,19.044,371.44,2,-9,9,-9,0.08,10.69,66.97,27.93,228.53
AOML_Explorer,Ex0543E,304.863,31102005,20:42:04,23.363,-72.893,380.74,-9,1014.98,1011.41,28.19,28.51,36.527,2.03,81.35,31.997,1014.98,127.8,22.1,66.967,19.044,370.35,2,-9,9,-9,0.08,10.69,66.97,27.93,228.41
AOML_Explorer,Ex0543E,304.864,31102005,20:44:37,23.363,-72.893,381.75,-9,1014.87,1011.41,28.2,28.51,36.527,2.014,82.88,31.999,1014.87,127.8,22.1,66.967,19.044,371.18,2,-9,9,-9,0.08,10.69,66.97,27.93,228.32
AOML_Explorer,Ex0543E,304.866,31102005,20:47:10,23.363,-72.893,380.69,-9,1014.89,1011.41,28.21,28.51,36.527,2.07,82.352,32.001,1014.89,127.8,22.1,66.967,19.044,370,2,-9,9,-9,0.08,10.69,66.97,27.93,228.34
AOML_Explorer,Ex0543E,304.868,31102005,20:49:43,23.363,-72.893,383.63,-9,1014.89,1011.41,28.15,28.51,36.527,2.056,82.237,32.001,1014.89,127.8,22.1,66.967,19.044,373.7,2,-9,9,-9,0.08,10.69,66.97,27.93,228.51
AOML_Explorer,Ex0543E,304.87,31102005,20:52:16,23.363,-72.893,382.42,-9,1014.66,1011.41,28.04,28.51,36.527,2.033,81.958,32.009,1014.66,127.8,22.1,66.967,19.044,373.94,2,-9,9,-9,0.07,10.69,66.97,27.93,228.47
AOML_Explorer,Ex0543E,304.871,31102005,20:54:49,23.363,-72.893,383.31,-9,1014.84,1011.41,27.99,28.51,36.527,2.063,82.209,32.012,1014.84,127.8,22.1,66.967,19.044,375.61,2,-9,9,-9,0.08,10.69,66.97,27.93,228.78
AOML_Explorer,Ex0543E,304.873,31102005,20:57:22,23.363,-72.893,383.24,-9,1014.9,1011.41,27.95,28.51,36.527,2.066,82.158,32.017,1014.9,127.8,22.1,66.967,19.044,376.16,2,-9,9,-9,0.08,10.69,66.97,27.93,228.52
AOML_Explorer,Ex0543E,304.875,31102005,20:59:55,23.363,-72.893,384.32,-9,1014.75,1011.41,27.9,28.51,36.527,2.038,82.445,32.023,1014.75,127.8,22.1,66.967,19.044,377.92,2,-9,9,-9,0.08,10.69,66.97,27.93,228.81
AOML_Explorer,Ex0543E,304.933,31102005,22:24:13,22.965,-72.324,381.23,-9,1014.75,1011.09,28.13,28.41,36.29,2.031,83.147,32.052,1014.75,127,22,54.271,19.044,370.34,2,-9,9,-9,0.09,12.3,54.27,25.71,228.31
AOML_Explorer,Ex0543E,304.935,31102005,22:26:46,22.956,-72.31,381.18,-9,1014.74,1011.69,28.1,28.43,36.313,2.049,83.189,32.047,1014.74,126.5,22,48.885,18.015,370.91,2,-9,9,-9,0.08,11.79,48.88,26.01,228.28
AOML_Explorer,Ex0543E,304.937,31102005,22:29:19,22.946,-72.297,380.83,-9,1014.85,1011.69,28.09,28.44,36.367,2.033,82.682,32.046,1014.85,126.2,22.2,54.729,18.015,370.92,2,-9,9,-9,0.09,10.79,54.73,27.14,228.18
AOML_Explorer,Ex0543E,304.939,31102005,22:31:52,22.937,-72.283,381.01,-9,1015.07,1011.96,28.12,28.45,36.382,2.02,83.234,32.041,1015.07,126.5,22,66.864,18.015,370.87,2,-9,9,-9,0.08,9.4,66.86,27.6,228.15
AOML_Explorer,Ex0543E,304.941,31102005,22:34:25,22.927,-72.27,381.77,-9,1015.09,1011.75,28.12,28.46,36.39,2.037,82.596,32.036,1015.09,126.8,22,83.307,18.529,371.65,2,-9,9,-9,0.08,8.6,83.31,28.12,228.05
AOML_Explorer,Ex0543E,304.942,31102005,22:36:58,22.918,-72.256,382.09,-9,1015.1,1011.78,28.12,28.49,36.426,2.056,83.131,32.032,1015.1,126.9,22,86.103,19.559,372.47,2,-9,9,-9,0.08,9.53,86.1,28.23,228.05
AOML_Explorer,Ex0543E,304.944,31102005,22:39:31,22.909,-72.243,382.38,-9,1015.22,1011.52,28.15,28.47,36.432,2.004,82.863,31.989,1015.22,127.1,22.1,80.469,18.529,372.11,2,-9,9,-9,0.08,8.72,80.47,28.3,228.12
AOML_Explorer,Ex0543E,304.946,31102005,22:42:04,22.899,-72.23,382.97,-9,1015.28,1011.69,28.16,28.49,36.45,2.041,82.645,31.974,1015.28,127,22.1,87.887,18.529,372.88,2,-9,9,-9,0.08,8.25,87.89,28.27,228.02
AOML_Explorer,Ex0543E,304.948,31102005,22:44:37,22.89,-72.216,383.41,-9,1015.29,1011.76,28.16,28.47,36.453,2.025,82.739,31.967,1015.29,127.3,22.2,77.509,19.559,373.03,2,-9,9,-9,0.08,10.1,77.51,28.21,227.97
AOML_Explorer,Ex0543E,304.949,31102005,22:47:10,22.88,-72.203,383.72,-9,1015.36,1011.60,28.16,28.47,36.477,2.036,83.223,31.96,1015.36,126.7,22.1,83.088,18.529,373.28,2,-9,9,-9,0.08,8.55,83.09,28.25,227.88
AOML_Explorer,Ex0543E,304.951,31102005,22:49:43,22.871,-72.189,383.87,-9,1015.4,1011.93,28.15,28.49,36.479,2.058,82.359,31.959,1015.4,126.9,22.2,82.852,20.073,373.89,2,-9,9,-9,0.08,10.23,82.85,28.22,227.93
AOML_Explorer,Ex0543E,304.953,31102005,22:52:16,22.861,-72.176,383.77,-9,1015.3,1011.86,28.15,28.54,36.495,2.026,82.175,31.959,1015.3,127,22.1,84.501,20.073,374.36,2,-9,9,-9,0.07,10.16,84.5,28.23,227.78
AOML_Explorer,Ex0543E,304.955,31102005,22:54:49,22.852,-72.162,383.58,-9,1015.65,1012.08,28.18,28.6,36.505,2.006,82.764,31.961,1015.65,127.4,22.2,84.108,19.559,374.78,2,-9,9,-9,0.08,9.61,84.11,28.35,227.86
AOML_Explorer,Ex0543E,304.957,31102005,22:57:22,22.842,-72.149,383.45,-9,1015.57,1011.93,28.22,28.57,36.515,2.062,82.495,31.962,1015.57,127.5,22.2,86.663,19.559,373.65,2,-9,9,-9,0.08,9.4,86.66,28.37,227.81
AOML_Explorer,Ex0543E,304.958,31102005,22:59:55,22.833,-72.135,383.15,-9,1015.56,1012.02,28.24,28.56,36.499,2.011,83.335,31.965,1015.56,126.6,22.2,89.588,19.044,372.94,2,-9,9,-9,0.08,8.63,89.59,28.33,227.77
AOML_Explorer,Ex0543E,304.973,31102005,23:21:40,22.752,-72.02,383.5,-9,1015.42,1011.85,28.23,28.55,36.431,2.04,82.645,32.036,1015.42,127.2,22.1,82.67,18.529,373.22,2,-9,9,-9,0.08,8.62,82.67,28.24,228.22